Flag for Norway Weather past 2 weeks in Hammerfest, Norway

Now
43 °F

Passing clouds.


Feels Like: 40 °F
Forecast: 48 / 55 °F
Wind: 5 mph from Northeast

Location: Hammerfest

Current Time: Aug 23, 2014 at 4:19:07 AM

Latest Report: Aug 23, 2014 at 3:50 AM


Visibility: N/A

Pressure: 29.77 "Hg

Humidity: 81%

Dew point: 37 °F

Location of HammerfestLocation

Historic Weather in Hammerfest — Graph

°F

Hammerfest temperature yesterday

Maximum temperature yesterday: 50 °F (at 11:50 AM)
Minimum temperature yesterday: 39 °F (at 2:50 AM)
Average temperature yesterday: 46 °F

Past Weeks' High & Low Weather Summary

 TemperatureHumidityPressure
High66 °F (Aug 12, 2:50 PM)100% (Aug 8, 5:50 AM)30.07 "Hg (Aug 8, 5:50 AM)
Low39 °F (Aug 22, 2:50 AM)59% (Aug 11, 12:50 PM)29.18 "Hg (Aug 13, 10:50 AM)
Average50 °F84%29.65 "Hg
* Reported Aug 8 2:50 AM — Aug 23 2:50 AM, Hammerfest, Weather by CustomWeather, © 2014

Note: Actual official high and low records may vary slightly from our data, if they occured in-between our weather recording intervals... More about our weather records

Advertising

Hammerfest weather history for previous 24 hours

 ConditionsComfort  
Time TempWeatherWind HumidityBarometerVisibility
2:50 AM
Aug 23
43 °FPassing clouds.5 mph81%29.77 "HgN/A
1:50 AM45 °FPassing clouds.5 mph76%29.77 "HgN/A
12:50 AM45 °FPassing clouds.5 mph76%29.77 "HgN/A
11:50 PM
Aug 22
45 °FPassing clouds.6 mph81%29.77 "HgN/A
10:50 PM45 °FPassing clouds.5 mph76%29.77 "HgN/A
9:50 PM45 °FPartly sunny.6 mph81%29.77 "HgN/A
8:59 PM45 °FPartly sunny.7 mph81%29.77 "HgN/A
7:50 PM46 °FPartly sunny.7 mph76%29.77 "HgN/A
6:50 PM46 °FScattered clouds.7 mph71%29.77 "HgN/A
5:50 PM48 °FPassing clouds.7 mph62%29.77 "HgN/A
5:01 PM48 °FPassing clouds.9 mph66%29.77 "HgN/A
3:50 PM50 °FPassing clouds.7 mph62%29.77 "HgN/A
2:50 PM50 °FPassing clouds.9 mph67%29.77 "HgN/A
1:50 PM50 °FPassing clouds.9 mph67%29.77 "HgN/A
12:50 PM50 °FPassing clouds.8 mph67%29.77 "HgN/A
11:50 AM50 °FPassing clouds.5 mph67%29.77 "HgN/A
10:50 AM46 °FScattered clouds.7 mph76%29.77 "HgN/A
9:50 AM46 °FScattered clouds.5 mph76%29.77 "HgN/A
8:50 AM46 °FPassing clouds.6 mph76%29.77 "HgN/A
7:50 AM45 °FPassing clouds.6 mph81%29.77 "HgN/A
6:50 AM45 °FPassing clouds.3 mph81%29.77 "HgN/A
5:50 AM41 °FPassing clouds.3 mph87%29.77 "HgN/A
4:50 AM41 °FScattered clouds.3 mph87%29.77 "HgN/A
Weather by CustomWeather, © 2014

See weather overviewHow to use our weather pages